World > North America > United States > Nebraska   Omaha, NE Website

Omaha, Nebraska Regional Weather

Lat: 41.26N, Lon: 96.01W
Wx Zone: NEZ052
Feedback

Omaha, NE Regional Weather

Expires:202004060900;;648829
ASUS43 KEAX 060815
RWREAX

WEATHER ROUNDUP FOR EASTERN KANSAS AND NORTHWEST MISSOURI
NATIONAL WEATHER SERVICE KANSAS CITY/PLEASANT HILL MO
300 AM CDT MON APR 06 2020


IAZ060-094-KSZ022-034>040-054-083-096-NEZ052-066-093-060900- 
...KANSAS...SOUTHEAST NEBRASKA AND IOWA...
  
CITY           SKY/WX    TMP DP  RH WIND       PRES   REMARKS
TOPEKA         CLOUDY    54  48  80 E7        29.96F                  
MANHATTAN      CLOUDY    57  51  80 S7        29.91F                  
EMPORIA        CLOUDY    55  54  96 S14       29.94F                  
OTTAWA         CLOUDY    55  54  94 SE7       29.97F                  
CHANUTE        CLOUDY    59  55  87 S12       30.00S                  
SALINA         CLOUDY    54  48  80 SE6       29.89F                  
WICHITA        CLOUDY    57  52  83 S20G30    29.92S                  
OMAHA          CLOUDY    51  45  79 SE13      29.92F                  
LINCOLN        CLOUDY    53  45  74 S14       29.91F                  
FALLS CITY     CLOUDY    52  47  83 SE12      29.95F                  
LAMONI         CLOUDY    47  44  90 S5        30.01F                  
DES MOINES     DRIZZLE   47  42  83 S8        30.02F                  

$$

  

SKY/WX - Weather  TMP - Temperature  DP - Dew Point  RH - Relative Humidity
WIND - Wind Direction/Speed PRES - Barometric Pressure VSB - Visibility
WCI - Wind Chill Index E13G22 Wind - East Wind 13 mph/Gusts of 22 mph
Omaha Weather Map
UTC Time: 4/6/2020, 08:53
Your Time: